Location: Scottsville
(37.8064°N, 78.4920°W)
Time: 04:39:58
(UTC+00:00)

Hubble Space Telescope - Visible Passes

Search period start: 21 June 2024 00:00
Search period end: 01 July 2024 00:00
Orbit: 510 x 514 km, 28.5° (Epoch: 20 June)

Date Brightness Start Highest point End Pass type
(mag) Time Alt. Az. Time Alt. Az. Time Alt. Az.
27 Jun 2.8 09:19:13 10° SSW 09:21:24 14° SSE 09:23:34 10° SE visible
28 Jun 2.7 08:59:53 10° SSW 09:02:10 15° SSE 09:04:32 10° SE visible
29 Jun 2.5 08:41:38 14° SSW 08:42:56 16° SSE 08:45:28 10° SE visible
30 Jun 2.4 08:23:23 17° S 08:23:41 17° S 08:26:21 10° SE visible
